Date String (YYYY-MM-DD hh:mm:ss) UTC,Instrument flags,Ambient pressure (hPa),Sample flow (lpm),Bypass flow (lpm),Sample temperature (°C),Ambient temperature (°C),ASC tube jacket temperature (°C),LED temperature (°C),Box temperature (°C),Sample RH (%),Span deviation,Mass concentration (μg/m³),Mass concentration (μg/m³),Mass concentration (μg/m³)
DateTimeUTC,F1_M11,P_M11,Q1_M11,Q2_M11,T1_M11,T2_M11,T3_M11,T4_M11,T5_M11,U1_M11,ZSPAN_M11,X0_M11,X2_M11,X1_M11
2021-10-07 07:00:00,,0826.7,4.99,0.00,30.1,29.3,00.0,39.1,31.9,16.6,0000.0,0010.00,0003.32,0002.24
2021-10-07 07:01:00,,0826.7,5.00,0.00,30.1,29.0,00.0,39.1,31.9,16.6,0000.0,0010.29,0003.32,0002.26
2021-10-07 07:02:00,,0826.7,5.01,0.00,30.0,27.0,00.0,39.1,31.3,16.7,0000.0,0010.30,0003.31,0002.27
2021-10-07 07:03:00,,0826.7,5.00,0.00,29.8,26.3,00.0,39.1,31.1,16.8,0000.0,0010.46,0003.32,0002.26
2021-10-07 07:04:00,,0826.7,5.00,0.00,29.8,26.5,00.0,39.0,31.2,17.0,0000.0,0010.48,0003.35,0002.26
2021-10-07 07:05:00,,0826.7,4.99,0.00,29.7,26.9,00.0,39.0,31.2,17.1,0000.0,0011.41,0003.38,0002.27
2021-10-07 07:06:00,,0826.7,5.00,0.00,29.7,27.3,00.0,38.9,31.2,17.1,0000.0,0011.26,0003.37,0002.26
2021-10-07 07:07:00,,0826.7,5.00,0.00,29.7,27.7,00.0,38.9,31.3,17.1,0000.0,0011.48,0003.38,0002.27
2021-10-07 07:08:00,,0826.7,5.00,0.00,29.7,27.9,00.0,38.9,31.4,17.1,0000.0,0012.29,0003.38,0002.27
2021-10-07 07:09:00,,0826.7,5.00,0.00,29.7,28.1,00.0,38.9,31.4,17.1,0000.0,0011.71,0003.37,0002.28
2021-10-07 07:10:00,,0826.7,4.99,0.00,29.7,28.3,00.0,38.9,31.4,17.1,0000.0,0011.65,0003.41,0002.28
2021-10-07 07:11:00,,0826.8,5.01,0.00,29.7,28.5,00.0,38.9,31.5,17.1,0000.0,0011.57,0003.43,0002.28
2021-10-07 07:12:00,,0826.8,5.00,0.00,29.8,28.6,00.0,38.9,31.5,17.1,0000.0,0011.46,0003.46,0002.28
2021-10-07 07:13:00,,0826.7,5.01,0.00,29.8,28.6,00.0,38.9,31.6,17.0,0000.0,0011.88,0003.49,0002.28
2021-10-07 07:14:00,,0826.7,4.99,0.00,29.8,28.7,00.0,38.9,31.6,17.0,0000.0,0013.11,0003.51,0002.28
2021-10-07 07:15:00,,0826.7,4.99,0.00,29.8,28.8,00.0,38.9,31.6,17.0,0000.0,0013.95,0003.50,0002.28
2021-10-07 07:16:00,,0826.7,5.00,0.00,29.9,28.9,00.0,38.9,31.7,17.0,0000.0,0013.21,0003.53,0002.29
2021-10-07 07:17:00,,0826.8,5.01,0.00,29.9,28.9,00.0,38.9,31.7,16.9,0000.0,0012.88,0003.52,0002.28
2021-10-07 07:18:00,,0826.7,4.98,0.00,29.9,29.0,00.0,38.9,31.7,16.9,0000.0,0012.79,0003.48,0002.27
2021-10-07 07:19:00,,0826.7,5.01,0.00,29.9,29.0,00.0,38.9,31.7,16.9,0000.0,0012.12,0003.48,0002.28
2021-10-07 07:20:00,,0826.8,4.99,0.00,30.0,29.0,00.0,39.0,31.8,16.9,0000.0,0012.43,0003.48,0002.26
2021-10-07 07:21:00,,0826.8,5.01,0.00,30.0,29.1,00.0,39.0,31.8,16.8,0000.0,0012.22,0003.41,0002.25
2021-10-07 07:22:00,,0826.8,5.00,0.00,30.0,29.1,00.0,39.0,31.8,16.8,0000.0,0012.89,0003.40,0002.26
2021-10-07 07:23:00,,0826.8,4.98,0.00,30.0,29.2,00.0,39.0,31.9,16.9,0000.0,0013.51,0003.40,0002.26
2021-10-07 07:24:00,,0826.8,5.01,0.00,30.1,29.2,00.0,39.0,31.9,17.0,0000.0,0013.22,0003.39,0002.27
2021-10-07 07:25:00,,0826.8,5.00,0.00,30.1,29.2,00.0,39.0,31.9,17.0,0000.0,0011.96,0003.36,0002.28
2021-10-07 07:26:00,,0826.8,5.01,0.00,30.1,29.2,00.0,39.1,31.9,17.1,0000.0,0010.68,0003.38,0002.29
2021-10-07 07:27:00,,0826.8,5.00,0.00,30.1,29.2,00.0,39.1,31.9,17.1,0000.0,0010.79,0003.35,0002.29
2021-10-07 07:28:00,,0826.9,5.00,0.00,30.1,29.3,00.0,39.1,31.9,17.0,0000.0,0010.73,0003.36,0002.30
2021-10-07 07:29:00,,0827.2,4.99,0.00,30.1,29.3,00.0,39.1,32.0,17.0,0000.0,0010.59,0003.43,0002.31
2021-10-07 07:30:00,,0827.0,5.00,0.00,30.2,29.3,00.0,39.1,32.0,17.0,0000.0,0010.32,0003.42,0002.33
2021-10-07 07:31:00,,0827.1,5.01,0.00,30.2,28.8,00.0,39.2,31.9,16.9,0000.0,0009.99,0003.44,0002.34
2021-10-07 07:32:00,,0826.8,4.99,0.00,30.0,26.7,00.0,39.1,31.3,17.0,0000.0,0009.82,0003.48,0002.36
2021-10-07 07:33:00,,0827.2,5.00,0.00,29.9,26.2,00.0,39.1,31.1,17.2,0000.0,0009.26,0003.48,0002.36
2021-10-07 07:34:00,,0826.9,5.01,0.00,29.8,26.4,00.0,39.1,31.1,17.3,0000.0,0008.95,0003.47,0002.38
2021-10-07 07:35:00,,0826.8,5.01,0.00,29.7,26.9,00.0,39.0,31.2,17.4,0000.0,0009.36,0003.48,0002.40
2021-10-07 07:36:00,,0826.8,5.00,0.00,29.7,27.3,00.0,39.0,31.3,17.3,0000.0,0009.55,0003.50,0002.40
2021-10-07 07:37:00,,0827.0,5.00,0.00,29.7,27.6,00.0,38.9,31.3,17.3,0000.0,0009.85,0003.50,0002.41
2021-10-07 07:38:00,,0826.8,5.01,0.00,29.7,27.9,00.0,38.9,31.4,17.4,0000.0,0010.83,0003.50,0002.42
2021-10-07 07:39:00,,0826.8,5.01,0.00,29.7,28.1,00.0,38.9,31.4,17.5,0000.0,0011.69,0003.53,0002.44
2021-10-07 07:40:00,,0826.8,5.00,0.00,29.7,28.2,00.0,38.9,31.5,17.5,0000.0,0012.98,0003.48,0002.44
2021-10-07 07:41:00,,0826.8,5.00,0.00,29.7,28.3,00.0,38.9,31.5,17.5,0000.0,0012.89,0003.50,0002.45
2021-10-07 07:42:00,,0826.9,5.00,0.00,29.7,28.4,00.0,38.9,31.5,17.5,0000.0,0012.94,0003.48,0002.44
2021-10-07 07:43:00,,0826.9,5.01,0.00,29.8,28.5,00.0,38.9,31.6,17.5,0000.0,0012.88,0003.46,0002.43
2021-10-07 07:44:00,,0826.9,5.00,0.00,29.8,28.6,00.0,38.9,31.6,17.4,0000.0,0012.60,0003.44,0002.42
2021-10-07 07:45:00,,0826.8,5.00,0.00,29.8,28.7,00.0,38.9,31.6,17.4,0000.0,0012.45,0003.41,0002.39
2021-10-07 07:46:00,,0826.8,4.98,0.00,29.8,28.7,00.0,38.9,31.6,17.4,0000.0,0012.49,0003.36,0002.37
2021-10-07 07:47:00,,0827.0,5.01,0.00,29.8,28.8,00.0,38.9,31.6,17.4,0000.0,0012.69,0003.32,0002.35
2021-10-07 07:48:00,,0826.8,5.00,0.00,29.8,28.8,00.0,38.9,31.6,17.3,0000.0,0012.71,0003.29,0002.35
2021-10-07 07:49:00,,0826.9,5.00,0.00,29.9,28.9,00.0,38.9,31.6,17.3,0000.0,0012.01,0003.28,0002.35
2021-10-07 07:50:00,,0826.8,4.99,0.00,29.9,28.9,00.0,38.9,31.7,17.2,0000.0,0011.00,0003.22,0002.32
2021-10-07 07:51:00,,0826.8,4.99,0.00,29.9,28.9,00.0,38.9,31.7,17.2,0000.0,0010.33,0003.21,0002.32
2021-10-07 07:52:00,,0826.9,5.00,0.00,29.9,28.9,00.0,39.0,31.7,17.2,0000.0,0010.62,0003.21,0002.30
2021-10-07 07:53:00,,0826.8,5.01,0.00,29.9,28.9,00.0,39.0,31.7,17.2,0000.0,0010.54,0003.21,0002.30
2021-10-07 07:54:00,,0826.8,5.00,0.00,30.0,29.0,00.0,39.0,31.7,17.2,0000.0,0010.40,0003.19,0002.30
2021-10-07 07:55:00,,0827.3,5.00,0.00,30.0,29.0,00.0,39.0,31.8,17.2,0000.0,0010.61,0003.22,0002.30
2021-10-07 07:56:00,,0827.0,5.00,0.00,30.0,29.0,00.0,39.0,31.8,17.2,0000.0,0011.10,0003.24,0002.30
2021-10-07 07:57:00,,0826.9,4.99,0.00,30.0,29.0,00.0,39.0,31.8,17.2,0000.0,0012.46,0003.27,0002.29
2021-10-07 07:58:00,,0826.9,5.00,0.00,30.0,29.0,00.0,39.0,31.8,17.2,0000.0,0012.82,0003.31,0002.28
2021-10-07 07:59:00,,0826.9,5.00,0.00,30.0,29.0,00.0,39.1,31.9,17.2,0000.0,0012.72,0003.34,0002.27
